Regional Weather Roundup
Issued by NWS

Home | Current Version | Previous Version | Graphics & Text | Print | Product List | Glossary On
Versions: 1 2 3 4 5 6 7 8 9 10 11 12 13 14 15 16 17 18 19 20 21 22 23 24 25 26 27 28 29 30 31 32 33 34 35 36 37 38 39 40 41 42 43 44 45 46 47 48 49 50
000
ASUS45 KBOU 310107
RWRCO

WEATHER ROUNDUP FOR COLORADO
NATIONAL WEATHER SERVICE DENVER/BOULDER CO
700 PM MDT SUN AUG 30 2015

NOTE: "FAIR" INDICATES FEW OR NO CLOUDS BELOW 12000 FEET WITH NO
SIGNIFICANT WEATHER AND/OR OBSTRUCTIONS TO VISIBILITY.

COZ001>005-013-030-031-310200-
...NORTHWEST COLORADO...

CITY           SKY/WX    TMP DP  RH WIND       PRES   REMARKS
CRAIG          LGT RAIN  62  54  74 W10       30.15S
HAYDEN         NOT AVBL
MEEKER         CLOUDY    68  51  54 S13       30.18R
MOUNT WERNER   NOT AVBL
STEAMBOAT SPGS CLOUDY    63  51  67 SW10G18   30.22R
WALDEN         CLOUDY    64  41  42 W22G32    30.25R
$$

COZ006>008-011-310200-
...WEST CENTRAL VALLEYS...

CITY           SKY/WX    TMP DP  RH WIND       PRES   REMARKS
GRAND JUNCTION LGT RAIN  83  48  29 S12       29.98R
MONTROSE       MOCLDY    76  54  46 E5        30.09F
EAGLE          MOCLDY    72  48  43 SW15G22   30.16
RIFLE          CLOUDY    79  46  31 W6        30.07R
DELTA          RAIN      80  48  33 N10       30.04F
NUCLA          MOCLDY    82  39  21 SW21      30.11S
$$

COZ017>023-064>068-310200-
...SOUTHWEST COLORADO...

CITY           SKY/WX    TMP DP  RH WIND       PRES   REMARKS
DURANGO        MOCLDY    77  44  30 W10       30.17S
CORTEZ         MOCLDY    74  51  44 W25G44    30.16R
PAGOSA SPRINGS MOCLDY    74  43  32 W6        30.24F
TELLURIDE      CLOUDY    63  45  51 E3        30.38S THUNDER
WOLF CREEK PAS PTCLDY    54  36  50 SW14G21   30.60F
$$

COZ009-010-012-014-032>034-037-058>063-310200-
...CENTRAL COLORADO...

CITY           SKY/WX    TMP DP  RH WIND       PRES   REMARKS
ASPEN          CLOUDY    71  40  32 SE10G17   30.25R
BUENA VISTA    MOCLDY    72  37  27 W21G29    30.22S
COPPER MTN     MOCLDY    59  32  36 S8        30.57F
BERTHOUD PASS  CLOUDY    52  37  58 NE5       30.62F
COTTONWOOD PAS MOCLDY    68  32  26 W16G32    30.39S
GUNNISON       MOCLDY    66  43  42 N7        30.28F
KREMMLING      PTCLDY    73  37  27 N7        30.19S
LEADVILLE      CLOUDY    63  34  33 NW12G18   30.39S
MONARCH PASS   CLOUDY    54  36  50 SW14      30.69F
SALIDA         MOCLDY    76  38  25 W14G25    30.27S
SUNLIGHT       CLOUDY    54  45  71 CALM      30.51S
WILKERSON PASS MOCLDY    61  27  27 SW5       30.52F
$$

COZ069>075-310200-
...SAN LUIS VALLEY/SANGRE DE CRISTO MOUNTAINS...

CITY           SKY/WX    TMP DP  RH WIND       PRES   REMARKS
ALAMOSA        PTCLDY    73  40  30 NW16      30.21F
LA VETA PASS   PTCLDY    66  32  28 S5        30.43F
SAGUACHE       PTCLDY    73  39  29 W3        30.26F
$$

COZ035-036-038>040-310200-
...NORTHERN COLORADO FRONT RANGE...

CITY           SKY/WX    TMP DP  RH WIND       PRES   REMARKS
DENVER INTL AP PTCLDY    87  33  14 SE9       29.95F
DMNS CITY PARK   N/A     86  35  16 SE9G61    29.94F
AURORA         PTCLDY    87  40  19 S13       29.98F
FRONT RANGE AP NOT AVBL
ERIE MUNI ARPT PTCLDY    86  35  16 CALM      29.93F
BOULDER MUN AP PTCLDY    86  41  20 SW9       29.95S
CENTENNIAL     PTCLDY    85  39  19 SE12      30.00F
BROOMFIELD     PTCLDY    86  36  16 CALM      29.98F
FORT COLLINS   CLEAR     84  43  23 N7          N/A
LONGMONT       CLEAR     90  38  16 CALM      29.94F
$$

COZ041-046-047-076>085-087-088-310200-
...PIKES PEAK/PALMER DIVIDE AND SOUTHERN FOOTHILLS...

CITY           SKY/WX    TMP DP  RH WIND       PRES   REMARKS
COLO. SPRINGS  PTCLDY    83  36  18 SE10      30.07F
A. F. ACADEMY  PTCLDY    81  36  19 SE13      30.08F
ELLICOTT       NOT AVBL
FALCON         CLEAR     77  39  26 MISG      30.14S
FORT CARSON    CLEAR     84  41  21 SE10      30.02F
LIMON          CLEAR     81  44  27 SE10      30.01F
MONUMENT HILL  CLEAR     75  37  25 S9        30.13F
TRINIDAD       CLEAR     86  39  19 S6        30.03F
$$

COZ042>045-048>051-090-091-310200-
...NORTHEAST COLORADO...

CITY           SKY/WX    TMP DP  RH WIND       PRES   REMARKS
GREELEY ARPT   CLEAR     88  50  27 SE6       29.91F
AKRON          CLEAR     88  43  20 SE16      29.93F
BURLINGTON     CLEAR     81  48  31 S15       29.97F
WRAY           CLOUDY    89  44  21 SE16G25   29.90F
STERLING       CLEAR     88  54  31 SE6       29.85S
HOLYOKE        CLEAR     86  45  23 S16       29.89F
FORT MORGAN    CLEAR     85  44  23 E6        29.90F
$$

COZ086-089-092>099-310200-
...SOUTHEAST COLORADO...

CITY           SKY/WX    TMP DP  RH WIND       PRES   REMARKS
PUEBLO         CLEAR     91  43  18 SE14      29.92F
LA JUNTA       CLEAR     92  49  22 SE18      29.92F
LAMAR          CLEAR     86  51  29 SE16G24   29.90  HAZE
SPRINGFIELD    NOT AVBL
$$




USA.gov is the U.S. government's official web portal to all federal, state and local government web resources and services.